TimeEST,TemperatureF,Dew PointF,Humidity,Sea Level PressureIn,VisibilityMPH,Wind Direction,Wind SpeedMPH,Gust SpeedMPH,PrecipitationIn,Events,Conditions,WindDirDegrees,DateUTC
12:12 AM,23.0,19.4,86,29.47,1.2,NNW,3.5,-,0.01,Snow,Light Snow,330,2012-12-30 05:12:00
12:22 AM,23.0,19.4,86,29.47,1.5,NNW,3.5,-,0.01,Snow,Light Snow,330,2012-12-30 05:22:00
12:52 AM,23.0,19.0,85,29.52,2.5,Calm,Calm,-,0.01,Snow,Light Snow,0,2012-12-30 05:52:00
12:58 AM,23.0,19.4,86,29.47,3.0,Calm,Calm,-,0.00,Snow,Light Snow,0,2012-12-30 05:58:00
1:52 AM,21.9,19.0,89,29.50,8.0,Calm,Calm,-,0.00,,Overcast,0,2012-12-30 06:52:00
2:47 AM,21.2,19.4,93,29.45,9.0,WNW,3.5,-,N/A,,Overcast,300,2012-12-30 07:47:00
2:52 AM,21.9,19.0,89,29.50,10.0,Calm,Calm,-,N/A,,Overcast,0,2012-12-30 07:52:00
3:30 AM,21.2,19.4,93,29.44,4.0,NNW,4.6,-,0.00,Snow,Light Snow,340,2012-12-30 08:30:00
4:52 AM,21.0,14.0,74,29.52,5.0,NNW,12.7,20.7,0.00,Snow,Light Snow,330,2012-12-30 09:52:00
5:52 AM,19.0,10.9,71,29.56,9.0,NNW,11.5,-,N/A,,Overcast,340,2012-12-30 10:52:00
6:52 AM,18.0,10.0,71,29.60,10.0,NNW,8.1,-,N/A,,Overcast,330,2012-12-30 11:52:00
7:52 AM,16.0,8.1,71,29.63,9.0,NNW,8.1,-,N/A,,Overcast,330,2012-12-30 12:52:00
8:43 AM,15.8,8.6,73,29.59,10.0,NNW,8.1,-,N/A,,Overcast,330,2012-12-30 13:43:00
8:52 AM,16.0,8.1,71,29.65,9.0,NNW,6.9,-,N/A,,Overcast,330,2012-12-30 13:52:00
9:52 AM,17.1,8.1,68,29.67,10.0,Variable,4.6,-,N/A,,Overcast,0,2012-12-30 14:52:00
10:52 AM,16.0,8.1,71,29.68,10.0,WNW,8.1,-,N/A,,Overcast,300,2012-12-30 15:52:00
11:52 AM,17.1,7.0,65,29.67,10.0,Variable,5.8,-,N/A,,Overcast,0,2012-12-30 16:52:00
12:52 PM,15.1,7.0,70,29.68,4.0,Variable,6.9,-,0.00,Snow,Light Snow,0,2012-12-30 17:52:00
1:35 PM,14.0,5.0,67,29.61,2.0,West,15.0,24.2,0.00,Snow,Light Snow,280,2012-12-30 18:35:00
1:47 PM,14.0,5.0,67,29.62,5.0,WNW,11.5,21.9,0.00,,Haze,300,2012-12-30 18:47:00
1:52 PM,14.0,5.0,67,29.69,4.0,West,12.7,21.9,0.00,,Haze,280,2012-12-30 18:52:00
2:34 PM,12.2,3.2,67,29.64,2.5,WNW,12.7,26.5,0.00,,Overcast,290,2012-12-30 19:34:00
2:52 PM,12.0,3.0,67,29.72,2.5,West,13.8,24.2,0.00,,Haze,280,2012-12-30 19:52:00
3:15 PM,10.4,3.2,73,29.67,3.0,West,9.2,17.3,0.00,,Haze,280,2012-12-30 20:15:00
3:29 PM,10.4,3.2,73,29.68,2.5,West,9.2,23.0,0.00,,Overcast,280,2012-12-30 20:29:00
3:38 PM,10.4,3.2,73,29.69,4.0,West,12.7,20.7,0.00,,Haze,280,2012-12-30 20:38:00
3:52 PM,10.0,1.0,67,29.77,4.0,West,9.2,24.2,0.00,,Haze,280,2012-12-30 20:52:00
4:52 PM,8.1,-0.0,70,29.80,9.0,WNW,8.1,24.2,N/A,,Overcast,290,2012-12-30 21:52:00
5:52 PM,8.1,-0.0,70,29.84,8.0,Variable,6.9,-,N/A,,Overcast,0,2012-12-30 22:52:00
6:52 PM,8.1,-0.0,70,29.87,10.0,West,8.1,-,N/A,,Partly Cloudy,280,2012-12-30 23:52:00
7:23 PM,8.6,-0.4,67,29.81,5.0,West,11.5,23.0,N/A,,Haze,280,2012-12-31 00:23:00
7:52 PM,8.1,1.0,73,29.89,2.5,WNW,12.7,26.5,0.00,Snow,Light Snow,290,2012-12-31 00:52:00
8:04 PM,8.6,1.4,73,29.82,1.5,West,16.1,26.5,0.00,Snow,Light Snow,280,2012-12-31 01:04:00
8:23 PM,8.6,1.4,73,29.83,1.5,WNW,15.0,27.6,0.00,Snow,Light Snow,290,2012-12-31 01:23:00
8:52 PM,9.0,1.0,70,29.91,1.8,West,16.1,29.9,0.00,Snow,Light Snow,270,2012-12-31 01:52:00
9:07 PM,8.6,1.4,73,29.84,2.5,West,9.2,21.9,0.00,Snow,Light Snow,270,2012-12-31 02:07:00
9:37 PM,8.6,1.4,73,29.84,2.5,West,11.5,20.7,0.00,Snow,Light Snow,280,2012-12-31 02:37:00
9:52 PM,9.0,1.0,70,29.91,2.5,West,11.5,21.9,0.00,Snow,Light Snow,260,2012-12-31 02:52:00
10:03 PM,8.6,1.4,73,29.85,3.0,West,10.4,24.2,0.00,,Haze,280,2012-12-31 03:03:00
10:42 PM,8.6,1.4,73,29.85,4.0,Variable,6.9,24.2,0.00,,Haze,0,2012-12-31 03:42:00
10:52 PM,9.0,1.0,70,29.93,4.0,WNW,9.2,25.3,0.00,,Haze,290,2012-12-31 03:52:00
11:47 PM,8.6,1.4,73,29.86,10.0,Calm,Calm,-,N/A,,Overcast,0,2012-12-31 04:47:00
11:52 PM,10.0,1.0,67,29.93,10.0,NW,3.5,-,N/A,,Overcast,320,2012-12-31 04:52:00